Montgomery, NY

9:52 PM EST on January 18, 2018 (GMT -0500)
Orange County

Weather History for KMGJ - March, 2013

Change the Weather History Date:

Sunday, March 31, 2013

  Actual Average (KSWF) Record (KSWF)
Temperature  
Mean Temperature 40 °F -  
Max Temperature 55 °F 49 °F 87 °F (1998)
Min Temperature 26 °F 32 °F -4 °F (2003)
Degree Days  
Heating Degree Days 24    
Moisture  
Dew Point 31 °F    
Average Humidity 70    
Maximum Humidity 93    
Minimum Humidity 30    
Precipitation  
Precipitation 0.16 in - - ()
Sea Level Pressure  
Sea Level Pressure 29.90 in    
Wind  
Wind Speed 4 mph (SE)    
Max Wind Speed 21 mph    
Max Gust Speed 30 mph    
Visibility 9 miles    
Events Rain    
Averages and records for this station are not official NWS values.
T = Trace of Precipitation, MM = Missing Value Source: NWS Daily Summary

Daily Weather History Graph

Daily Weather History Graph

Search for Another Location

Airport or City:

Trip Planner

Search our weather history database for the weather conditions in past years. The results will help you decide how hot, cold, wet, or windy it might be!

Date:

Astronomy

Mar. 31, 2013 Rise Set
Actual Time 6:41 AM EDT 7:21 PM EDT
Civil Twilight 6:13 AM EDT 7:49 PM EDT
Nautical Twilight 5:40 AM EDT 8:22 PM EDT
Astronomical Twilight 5:06 AM EDT 8:56 PM EDT
Moon No Moon Rise 9:23 AM EDT (3/31)
Length of Visible Light 13h 35m
Length of Day
12h 40m
Waning Gibbous, 78% of the Moon is Illuminated
Mar 31
Waning Gibbous
Apr 3
Last Quarter
Apr 10
New
Apr 18
First Quarter
Apr 25
Full

Hourly Weather History & Observations

Time (EDT) Temp. Windchill Dew Point Humidity Pressure Visibility Wind Dir Wind Speed Gust Speed Precip Events Conditions
12:54 AM 30.9 °F - 23.0 °F 72% 30.12 in 10.0 mi Calm Calm - N/A   Clear
1:54 AM 30.0 °F - 21.9 °F 72% 30.12 in 10.0 mi Calm Calm - N/A   Clear
2:54 AM 28.9 °F - 24.1 °F 82% 30.11 in 10.0 mi Calm Calm - N/A   Clear
3:54 AM 26.1 °F 20.5 °F 21.0 °F 81% 30.10 in 10.0 mi SSW 4.6 mph - N/A   Clear
4:54 AM 27.0 °F - 21.9 °F 81% 30.10 in 10.0 mi Calm Calm - N/A   Clear
5:54 AM 26.1 °F - 21.9 °F 84% 30.09 in 10.0 mi Calm Calm - N/A   Clear
6:54 AM 26.1 °F - 21.9 °F 84% 30.08 in 10.0 mi Calm Calm - N/A   Clear
7:54 AM 30.0 °F - 24.1 °F 79% 30.08 in 10.0 mi Calm Calm - N/A   Clear
8:54 AM 34.0 °F - 27.0 °F 75% 30.07 in 10.0 mi Calm Calm - N/A   Clear
9:54 AM 42.1 °F - 27.0 °F 55% 30.06 in 10.0 mi Calm Calm - N/A   Clear
10:54 AM 50.0 °F - 26.1 °F 39% 30.03 in 10.0 mi Calm Calm - N/A   Clear
11:54 AM 55.0 °F - 24.1 °F 30% 30.00 in 10.0 mi South 20.7 mph 29.9 mph N/A   Clear
12:54 PM 55.0 °F - 25.0 °F 31% 29.96 in 10.0 mi South 16.1 mph 23.0 mph N/A   Clear
1:54 PM 55.0 °F - 26.1 °F 33% 29.93 in 10.0 mi South 13.8 mph 24.2 mph N/A   Overcast
2:54 PM 54.0 °F - 28.9 °F 38% 29.90 in 10.0 mi South 10.4 mph 27.6 mph N/A   Overcast
3:54 PM 53.1 °F - 32.0 °F 45% 29.88 in 10.0 mi SSE 18.4 mph 23.0 mph N/A   Overcast
4:54 PM 51.1 °F - 34.0 °F 52% 29.87 in 10.0 mi SSE 16.1 mph 21.9 mph 0.00 in   Overcast
5:54 PM 50.0 °F - 33.1 °F 52% 29.85 in 10.0 mi SE 6.9 mph - N/A   Overcast
6:54 PM 48.0 °F - 35.1 °F 61% 29.82 in 10.0 mi South 10.4 mph 21.9 mph 0.00 in Rain Light Rain
7:54 PM 46.0 °F 44.8 °F 37.0 °F 71% 29.78 in 10.0 mi East 3.5 mph - 0.00 in Rain Light Rain
8:43 PM 46.4 °F - 35.6 °F 66% 29.74 in 10.0 mi Calm Calm - 0.00 in   Overcast
8:54 PM 46.9 °F - 37.0 °F 68% 29.75 in 10.0 mi SSE 3.5 mph - 0.00 in Rain Light Rain
9:54 PM 44.1 °F 42.5 °F 41.0 °F 89% 29.74 in 3.0 mi NNW 3.5 mph - 0.10 in Rain Rain
10:10 PM 44.6 °F 43.1 °F 41.0 °F 87% 29.73 in 4.0 mi North 3.5 mph - 0.02 in Rain Light Rain
10:54 PM 43.0 °F 40.3 °F 41.0 °F 93% 29.72 in 4.0 mi North 4.6 mph - 0.06 in Rain Light Rain
11:01 PM 42.8 °F 41.1 °F 41.0 °F 93% 29.71 in 5.0 mi NNW 3.5 mph - 0.00 in Rain Light Rain
11:10 PM 42.8 °F 41.1 °F 41.0 °F 93% 29.70 in 5.0 mi NNE 3.5 mph - 0.01 in Rain Light Rain
11:18 PM 42.8 °F 40.1 °F 41.0 °F 93% 29.70 in 6.0 mi North 4.6 mph - 0.02 in Rain Light Rain
11:30 PM 42.8 °F 40.1 °F 41.0 °F 93% 29.69 in 6.0 mi North 4.6 mph - 0.02 in Rain Light Rain
11:37 PM 42.8 °F 40.1 °F 41.0 °F 93% 29.69 in 5.0 mi North 4.6 mph - 0.02 in Rain Light Rain